[[{"header":{"parameterUnit":"m.s-1","parameterCategory":1,"la1":30.2991,"la2":30.254,"lo1":-89.0895,"lo2":-89.0444,"dy":0.0017,"dx":0.0017,"nx":28,"ny":28,"refTime":"2025-01-14T03:00:00:Z","depth":0,"parameterNumber":2,"parameterNumberName":"U-component_of_WINDS"},"data":[0,0,0,0,0,0,0,0,0,0,0,0,0,0,0,0,0,0,0,0,0,0,0,0,0,0,0,0,0,0,0,0,0,0,0,0,0,0,0,0,0,0,0,0,0,0,0,0,0,0,0,0,0,0,0,0,0,0,-3.4535,-3.4535,0,-3.4534,-3.4534,-3.4534,-3.4384,-3.438,-3.4376,-3.4372,-3.4376,-3.4379,-3.4383,0,0,0,0,0,0,0,0,0,0,0,0,0,-3.441,-3.4413,-3.4535,-3.4535,-3.4535,-3.4534,-3.4534,-3.4534,-3.4385,-3.438,-3.4375,-3.4371,-3.4374,-3.4379,-3.4383,0,0,0,0,0,0,0,0,0,0,0,0,0,-3.4442,-3.4414,-3.4535,-3.446,-3.4453,-3.4534,-3.4534,-3.4534,-3.4386,-3.438,-3.4374,-3.4368,-3.4373,-3.4378,-3.4384,-3.4537,0,0,-3.4401,-3.4404,0,0,0,0,0,0,0,0,-3.4441,-3.4447,-3.4471,-3.4465,-3.4458,-3.4453,-3.4491,-3.4535,-3.4387,-3.4412,-3.4372,-3.4365,-3.4406,-3.4409,-3.4422,-3.4537,-3.4537,-3.4402,-3.4405,-3.4407,-3.4409,0,0,0,0,0,0,0,-3.4438,-3.4446,-3.4535,-3.4472,-3.4464,-3.4427,-3.4425,-3.4499,-3.4442,-3.4409,-3.4398,-3.44,-3.4402,-3.4417,-3.4421,-3.4537,-3.4401,-3.4406,-3.441,-3.4412,-3.4778,-3.4784,0,0,0,0,0,0,-3.4446,-3.4445,-3.4535,-3.4535,-3.4434,-3.4435,-3.4432,-3.4461,-3.4441,-3.4432,-3.4405,-3.4393,-3.441,-3.4414,-3.442,-3.4599,-3.4407,-3.4413,-3.4416,-3.4772,-3.4779,-3.4786,0,0,0,0,0,0,-3.4444,-3.4455,-3.4535,-3.4487,-3.4494,-3.4443,-3.4476,-3.4464,-3.4479,-3.4438,-3.4427,-3.4431,-3.4406,-3.4412,-3.4509,-3.4597,-3.4415,-3.442,-3.4764,-3.4774,-3.4783,-3.4957,0,0,0,0,0,0,-3.4441,-3.4456,-3.4513,-3.4489,-3.4497,-3.4623,-3.4481,-3.4468,-3.4488,-3.4473,-3.4459,-3.4451,-3.4401,-3.4501,-3.4515,-3.4601,-3.4425,-3.4756,-3.4769,-3.478,-3.4943,-3.4971,-3.4995,0,0,0,0,0,-3.4437,-3.4563,-3.4517,-3.4528,-3.4568,-3.4629,-3.4633,-3.4572,-3.4496,-3.4554,-3.4527,-3.4452,-3.4584,-3.4512,-3.4526,-3.4616,-3.475,-3.4765,-3.4779,-3.4932,-3.4966,-3.4995,0,0,0,0,0,0,-3.4601,-3.4559,-3.4507,-3.4629,-3.4633,-3.4603,-3.4674,-3.461,-3.4638,-3.4622,-3.4546,-3.4544,-3.4653,-3.4643,-3.4564,-3.4763,-3.4654,-3.4672,-3.4765,-3.4798,-3.4823,-3.4824,-3.443,0,0,0,0,0,-3.465,-3.4702,-3.4663,-3.4775,-3.4779,-3.4727,-3.4751,-3.4703,-3.4705,-3.4706,-3.4687,-3.4693,-3.4735,-3.4765,-3.4802,-3.494,-3.4935,-3.5008,-3.5034,-3.5056,-3.5073,-3.5145,-3.5177,-3.4833,-3.4833,-3.4833,0,0,-3.4755,-3.4738,-3.4776,-3.4807,-3.4805,-3.4861,-3.4729,-3.4794,-3.4836,-3.4717,-3.4806,-3.4792,-3.4794,-3.4911,-3.4962,-3.4907,-3.5166,-3.5074,-3.5092,-3.5097,-3.5163,-3.5196,-3.5225,-3.4843,-3.4841,-3.4839,0,0,-3.4974,-3.4967,-3.5058,-3.5058,-3.5055,-3.5019,-3.5041,-3.502,-3.5006,-3.5094,-3.5006,-3.5054,-3.5129,-3.5134,-3.5146,-3.5365,-3.5297,-3.5379,-3.5516,-3.5587,-3.5614,-3.5638,-3.5717,-3.5746,-3.5395,-3.5396,-3.5396,0,-3.5105,-3.5185,-3.5114,-3.5185,-3.5201,-3.5093,-3.5186,-3.519,-3.5201,-3.5215,-3.5152,-3.5243,-3.5236,-3.5354,-3.5407,-3.542,-3.5444,-3.5381,-3.5616,-3.5639,-3.566,-3.5735,-3.5764,-3.5406,-3.5405,-3.5403,-3.5403,0,-3.5346,-3.5403,-3.5478,-3.5489,-3.5513,-3.5595,-3.5537,-3.557,-3.552,-3.549,-3.5582,-3.5569,-3.5602,-3.5625,-3.5577,-3.5736,-3.5702,-3.5629,-3.5518,-3.5704,-3.5773,-3.5801,-3.542,-3.5417,-3.5414,-3.5411,0,0,-3.5672,-3.564,-3.5669,-3.5673,-3.5661,-3.5704,-3.578,-3.581,-3.5841,-3.5851,-3.5914,-3.5979,-3.591,-3.5924,-3.5875,-3.5938,-3.6113,-3.5856,-3.5855,-3.5906,-3.6288,-3.6345,-3.6379,-3.6066,-3.6071,-3.6075,-3.6288,0,-3.5886,-3.6014,-3.5951,-3.6087,-3.6139,-3.6036,-3.6102,-3.6103,-3.6077,-3.6117,-3.6088,-3.6136,-3.6042,-3.605,-3.6106,-3.608,-3.6189,-3.6063,-3.6126,-3.6129,-3.6131,-3.6414,-3.6475,-3.6676,-3.6314,-3.6319,-3.6322,0,-3.6153,-3.6172,-3.6313,-3.629,-3.631,-3.6371,-3.6393,-3.6432,-3.643,-3.6407,-3.6422,-3.6358,-3.6432,-3.632,-3.6422,-3.6338,-3.6359,-3.635,-3.6356,-3.6361,-3.6239,-3.643,-3.6739,-3.677,-3.6364,-3.636,-3.6357,0,-3.6378,-3.6439,-3.6531,-3.6537,-3.6512,-3.6558,-3.655,-3.6542,-3.6563,-3.6583,-3.6596,-3.6625,-3.6641,-3.6665,-3.661,-3.6534,-3.672,-3.6603,-3.6704,-3.6705,-3.675,-3.6748,-3.7069,-3.6761,-3.676,-3.6759,-3.6759,0,-3.6624,-3.6715,-3.6632,-3.6689,-3.6787,-3.6714,-3.6813,-3.6794,-3.6788,-3.684,-3.6752,-3.6803,-3.6727,-3.6771,-3.6728,-3.6819,-3.6827,-3.6811,-3.6799,-3.682,-3.6823,-3.6835,-3.6821,-3.6767,-3.6766,-3.6764,-3.6763,0,-3.6894,-3.6841,-3.6935,-3.6903,-3.6897,-3.6971,-3.6944,-3.6996,-3.6962,-3.703,-3.7041,-3.699,-3.7036,-3.6983,-3.7026,-3.6998,-3.7121,-3.7087,-3.7122,-3.7113,-3.7217,-3.7209,-3.7559,-3.7602,-3.7264,-3.7268,-3.727,0,-3.7056,-3.7122,-3.7097,-3.7124,-3.7121,-3.7167,-3.7188,-3.7118,-3.7144,-3.7145,-3.7198,-3.7236,-3.7264,-3.7343,-3.731,-3.7342,-3.731,-3.743,-3.7315,-3.7334,-3.7314,-3.7311,-3.7318,-3.7455,-3.7459,-3.7463,-3.7465,0,-3.7349,-3.7319,-3.7352,-3.7376,-3.7403,-3.7419,-3.7428,-3.7456,-3.7383,-3.7416,-3.7462,-3.7483,-3.7525,-3.7565,-3.7588,-3.758,-3.7512,-3.7501,-3.7526,-3.755,-3.7568,-3.7561,-3.7189,-3.7494,-3.7492,-3.7489,-3.7488,-3.7487,-3.757,-3.7625,-3.7615,-3.7654,-3.7653,-3.7664,-3.7711,-3.7682,-3.7718,-3.7746,-3.7702,-3.776,-3.7755,-3.7777,-3.7778,-3.7822,-3.7771,-3.7807,-3.7817,-3.7827,-3.7844,-3.7559,-3.7826,-3.7825,-3.7824,-3.7823,-3.7823,0,-3.786,-3.7848,-3.7885,-3.7899,-3.7931,-3.786,-3.7866,-3.7897,-3.7949,-3.7949,-3.7977,-3.8029,-3.8067,-3.8036,-3.8068,-3.8109,-3.8079,-3.812,-3.8118,-3.8117,-3.7887,-3.7863,-3.8144,-3.8144,-3.8144,-3.8144,-3.8144,-3.8144,-3.8015,-3.8103,-3.8072,-3.816,-3.8146,-3.8201,-3.8211,-3.822,-3.8219,-3.8281,-3.8312,-3.829,-3.8278,-3.8308,-3.8339,-3.8329,-3.8346,-3.8399,-3.8379,-3.8165,-3.8133,-3.8103,-3.808,-3.8403,-3.8403,-3.8605,-3.8607,-3.8608]},{"header":{"parameterUnit":"m.s-1","parameterCategory":1,"la1":30.2991,"la2":30.254,"lo1":-89.0895,"lo2":-89.0444,"dy":0.0017,"dx":0.0017,"nx":28,"ny":28,"refTime":"2025-01-14T03:00:00:Z","depth":0,"parameterNumber":3,"parameterNumberName":"V-component_of_WINDS"},"data":[0,0,0,0,0,0,0,0,0,0,0,0,0,0,0,0,0,0,0,0,0,0,0,0,0,0,0,0,0,0,0,0,0,0,0,0,0,0,0,0,0,0,0,0,0,0,0,0,0,0,0,0,0,0,0,0,0,0,-3.3215,-3.3215,0,-3.3261,-3.3262,-3.3262,-3.3223,-3.3222,-3.322,-3.3219,-3.3264,-3.3267,-3.3269,0,0,0,0,0,0,0,0,0,0,0,0,0,-3.3088,-3.3091,-3.3215,-3.3215,-3.3216,-3.3261,-3.3262,-3.3262,-3.3224,-3.3222,-3.322,-3.3218,-3.3263,-3.3266,-3.3269,0,0,0,0,0,0,0,0,0,0,0,0,0,-3.314,-3.3092,-3.3214,-3.3202,-3.3201,-3.3261,-3.3262,-3.3262,-3.3224,-3.3222,-3.3219,-3.3217,-3.3262,-3.3266,-3.327,-3.3344,0,0,-3.3282,-3.3284,0,0,0,0,0,0,0,0,-3.3137,-3.3145,-3.3203,-3.3203,-3.3202,-3.3234,-3.3234,-3.329,-3.3225,-3.3215,-3.3218,-3.3216,-3.3256,-3.326,-3.3274,-3.3346,-3.3348,-3.3283,-3.3285,-3.3287,-3.3288,0,0,0,0,0,0,0,-3.3134,-3.3142,-3.3233,-3.3204,-3.3204,-3.3193,-3.3197,-3.3244,-3.3248,-3.3216,-3.3213,-3.3219,-3.3255,-3.327,-3.3275,-3.3348,-3.3283,-3.3286,-3.3289,-3.329,-3.348,-3.3483,0,0,0,0,0,0,-3.3132,-3.314,-3.3231,-3.3234,-3.3163,-3.3197,-3.3202,-3.3226,-3.3248,-3.3249,-3.3221,-3.3217,-3.3265,-3.327,-3.3276,-3.3363,-3.3287,-3.3291,-3.3293,-3.3478,-3.3481,-3.3484,0,0,0,0,0,0,-3.3129,-3.314,-3.323,-3.3186,-3.3197,-3.3202,-3.3229,-3.3228,-3.3244,-3.3252,-3.3252,-3.3237,-3.3263,-3.3271,-3.3327,-3.3364,-3.3293,-3.3296,-3.3475,-3.3479,-3.3482,-3.3537,0,0,0,0,0,0,-3.3126,-3.314,-3.3169,-3.3187,-3.3199,-3.3281,-3.3231,-3.3231,-3.3251,-3.3246,-3.3266,-3.3267,-3.3262,-3.3321,-3.3331,-3.3368,-3.3299,-3.3472,-3.3477,-3.3481,-3.3532,-3.3542,-3.3551,0,0,0,0,0,-3.3121,-3.3182,-3.317,-3.3182,-3.3236,-3.3283,-3.329,-3.3282,-3.3254,-3.3283,-3.3288,-3.3267,-3.3358,-3.3327,-3.3338,-3.3377,-3.3469,-3.3475,-3.3481,-3.3527,-3.354,-3.3551,0,0,0,0,0,0,-3.3167,-3.3184,-3.3172,-3.324,-3.3261,-3.3276,-3.3312,-3.3296,-3.3324,-3.3319,-3.3308,-3.3312,-3.3371,-3.338,-3.3345,-3.3448,-3.3409,-3.3417,-3.3441,-3.3453,-3.3462,-3.3459,-3.3303,0,0,0,0,0,-3.3186,-3.3223,-3.3236,-3.3295,-3.3306,-3.3307,-3.3328,-3.332,-3.334,-3.3348,-3.3358,-3.3377,-3.341,-3.3432,-3.3463,-3.3533,-3.3536,-3.3565,-3.3574,-3.3582,-3.3589,-3.3625,-3.3638,-3.3503,-3.3503,-3.3503,0,0,-3.3224,-3.3237,-3.3262,-3.3305,-3.3319,-3.3357,-3.3315,-3.3357,-3.3385,-3.3355,-3.3408,-3.3415,-3.3436,-3.3499,-3.3527,-3.3508,-3.3627,-3.359,-3.3596,-3.3599,-3.3632,-3.3645,-3.3656,-3.3507,-3.3506,-3.3506,0,0,-3.3312,-3.3327,-3.3377,-3.3393,-3.3416,-3.3416,-3.3428,-3.3446,-3.345,-3.3503,-3.3481,-3.3513,-3.357,-3.3586,-3.3601,-3.3693,-3.3674,-3.3703,-3.3753,-3.3788,-3.3799,-3.3808,-3.3839,-3.3851,-3.371,-3.3711,-3.3711,0,-3.3356,-3.3413,-3.3405,-3.3449,-3.3467,-3.3442,-3.3492,-3.3507,-3.3538,-3.3551,-3.3529,-3.36,-3.3612,-3.3677,-3.37,-3.3713,-3.3725,-3.3701,-3.3798,-3.3807,-3.3816,-3.3846,-3.3858,-3.3714,-3.3714,-3.3713,-3.3713,0,-3.3465,-3.3505,-3.3543,-3.3574,-3.3597,-3.3644,-3.3641,-3.3665,-3.3655,-3.3657,-3.3711,-3.3725,-3.3757,-3.3772,-3.3763,-3.3836,-3.3823,-3.38,-3.376,-3.3832,-3.386,-3.3871,-3.3719,-3.3718,-3.3717,-3.3716,0,0,-3.3585,-3.361,-3.3624,-3.3637,-3.3659,-3.3689,-3.3734,-3.3766,-3.3786,-3.3808,-3.3844,-3.3892,-3.3871,-3.3888,-3.388,-3.3911,-3.3981,-3.3884,-3.3884,-3.39,-3.406,-3.4076,-3.409,-3.3969,-3.3971,-3.3973,-3.4057,0,-3.3673,-3.3751,-3.3744,-3.3818,-3.3853,-3.3829,-3.3867,-3.3885,-3.3887,-3.3917,-3.392,-3.3954,-3.3923,-3.3933,-3.3963,-3.3966,-3.4013,-3.396,-3.4001,-3.4002,-3.3995,-3.4104,-3.4122,-3.4202,-3.4068,-3.407,-3.4072,0,-3.3786,-3.3812,-3.389,-3.3905,-3.392,-3.3955,-3.3982,-3.4012,-3.403,-3.4029,-3.4048,-3.4035,-3.4078,-3.4038,-3.4096,-3.406,-3.4076,-3.408,-3.4083,-3.4086,-3.4041,-3.4109,-3.4227,-3.4239,-3.4089,-3.4087,-3.4086,0,-3.3864,-3.3918,-3.3971,-3.3983,-3.4003,-3.4027,-3.4037,-3.4053,-3.4072,-3.4096,-3.4108,-3.4136,-3.4152,-3.4174,-3.4167,-3.4139,-3.4226,-3.4186,-3.4226,-3.4226,-3.4245,-3.4244,-3.4367,-3.4257,-3.4257,-3.4257,-3.4257,0,-3.3962,-3.401,-3.4006,-3.4038,-3.409,-3.4081,-3.4132,-3.4138,-3.4153,-3.4184,-3.4165,-3.4195,-3.4186,-3.4215,-3.4211,-3.4259,-3.4266,-3.4266,-3.4264,-3.4267,-3.4267,-3.4277,-3.4271,-3.426,-3.4259,-3.4259,-3.4258,0,-3.4057,-3.4057,-3.4112,-3.4126,-3.4131,-3.4168,-3.4179,-3.4209,-3.421,-3.4251,-3.4259,-3.4261,-3.4294,-3.429,-3.4328,-3.4324,-3.4383,-3.4375,-3.4377,-3.4375,-3.4415,-3.4411,-3.4547,-3.4564,-3.4445,-3.4446,-3.4447,0,-3.412,-3.4156,-3.4174,-3.4194,-3.4205,-3.4238,-3.4257,-3.4249,-3.4269,-3.4292,-3.4318,-3.435,-3.4375,-3.4429,-3.4432,-3.446,-3.4452,-3.4498,-3.4456,-3.4457,-3.4451,-3.4448,-3.4451,-3.4506,-3.4507,-3.4508,-3.4509,0,-3.4231,-3.4228,-3.4257,-3.4285,-3.4309,-3.4331,-3.435,-3.4368,-3.4361,-3.4385,-3.4419,-3.4438,-3.4476,-3.4507,-3.4533,-3.4541,-3.4524,-3.4522,-3.4533,-3.4536,-3.4535,-3.4535,-3.4399,-3.4519,-3.4518,-3.4518,-3.4517,-3.4517,-3.431,-3.4341,-3.4357,-3.4389,-3.4403,-3.4422,-3.445,-3.4454,-3.4483,-3.4513,-3.4506,-3.4544,-3.4559,-3.4593,-3.4603,-3.4632,-3.4615,-3.463,-3.4634,-3.4638,-3.4642,-3.4532,-3.4637,-3.4636,-3.4636,-3.4636,-3.4636,0,-3.4419,-3.4428,-3.4458,-3.4486,-3.4511,-3.4493,-3.4513,-3.4535,-3.4569,-3.4585,-3.4609,-3.4647,-3.4677,-3.4682,-3.471,-3.4732,-3.4724,-3.4739,-3.4737,-3.4739,-3.4656,-3.4644,-3.4745,-3.4745,-3.4745,-3.4745,-3.4745,-3.4745,-3.4478,-3.4527,-3.4527,-3.4582,-3.4591,-3.4628,-3.4641,-3.4657,-3.467,-3.4714,-3.4738,-3.4742,-3.4753,-3.4781,-3.4807,-3.4807,-3.4818,-3.4836,-3.4833,-3.4756,-3.4745,-3.4734,-3.4723,-3.4839,-3.4839,-3.4913,-3.4914,-3.4915]}]]